• Processing (Info)

  • MPEC 2014-K49 : 2014 KD39

    The following Minor Planet Electronic Circular may be linked-to from your own Web pages, but must not otherwise be redistributed electronically.

    A form allowing access to any MPEC is at the bottom of this page.


    Read MPEC 2014-K48 Read MPEC 2014-K50


    M.P.E.C. 2014-K49                                Issued 2014 May 26, 14:30 UT
    
         The Minor Planet Electronic Circulars contain information on unusual
             minor planets and routine data on comets.  They are published
       on behalf of Commission 20 of the International Astronomical Union by the
              Minor Planet Center, Smithsonian Astrophysical Observatory,
                              Cambridge, MA 02138, U.S.A.
    
                 Prepared using the Tamkin Foundation Computer Network
    
                                  MPC@CFA.HARVARD.EDU
                URL https://www.minorplanetcenter.net/    ISSN 1523-6714
    
                                       2014 KD39
    
    Observations:
         K14K39D* C2014 05 23.46676 16 13 57.483-00 59 53.52         21.5 wLEK049F51
         K14K39D  C2014 05 23.48999 16 13 57.908-01 00 26.65         21.8 wLEK049F51
         K14K39D  C2014 05 23.50160 16 13 58.123-01 00 43.41         21.7 wLEK049F51
         K14K39D _C2014 05 24.49812216 14 31.334-01 25 21.31         21.2 RtEK049568
         K14K39D _C2014 05 24.49937516 14 31.359-01 25 23.29         20.9 RtEK049568
         K14K39D _C2014 05 24.50062716 14 31.384-01 25 25.21         21.1 RtEK049568
         K14K39D KC2014 05 26.36078 16 15 36.47 -02 16 06.0          20.8 RoEK049291
         K14K39D KC2014 05 26.36372 16 15 36.53 -02 16 10.8          20.7 RoEK049291
         K14K39D KC2014 05 26.36667 16 15 36.61 -02 16 15.6          21.0 RoEK049291
    
    Observer details:
    291 LPL/Spacewatch II.  Observer R. A. Mastaler.  1.8-m f/2.7 reflector + CCD.
    568 Mauna Kea.  Observers R. J. Wainscoat, L. Wells.  Measurers M. Micheli,
        R. J. Wainscoat.  3.6-m Canada-France-Hawaii Telescope + CCD.
    F51 Pan-STARRS 1, Haleakala.  Observers N. Primak, A. Schultz, T. Goggia,
        M. Willman.  Measurer PS1 Science Consortium.  1.8-m Ritchey-Chretien
        + CCD.
    
    Orbital elements:
    2014 KD39                                                Earth MOID = 0.1311 AU
    Epoch 2014 May 23.0 TT = JDT 2456800.5                  MPC
    M 346.41330              (2000.0)            P               Q
    n   0.31425391     Peri.  196.95307     +0.19454144     +0.96711614
    a   2.1426386      Node    84.49617     -0.87978502     +0.24589210
    e   0.4672307      Incl.    9.47330     -0.43374179     -0.06498803
    P   3.14           H   23.4           G   0.15           U   8
    Residuals in seconds of arc
    140523 F51  0.0   0.0     140524 568  0.1-  0.0     140526 291  0.0   0.3-
    140523 F51  0.0   0.1+    140524 568  0.1-  0.0     140526 291  0.1-  0.0
    140523 F51  0.0   0.0     140524 568  0.1-  0.1-    140526 291  0.1+  0.3+
    
    Ephemeris:
    2014 KD39                a,e,i = 2.14, 0.47, 9                   q = 1.1415
    Date    TT    R. A. (2000) Decl.     Delta      r     Elong.  Phase     V
    2014 04 26    15 58 38.3 +02 55 30   0.3981  1.3632   149.1    22.3    23.1
    ...
    2014 05 11    16 07 34.4 +02 11 38   0.2976  1.2867   155.6    18.9    22.3
    ...
    2014 05 19    16 11 37.0 +00 31 39   0.2531  1.2506   158.5    17.2    21.8
    ...
    2014 05 25    16 14 49.3 -01 38 08   0.2238  1.2262   160.7    15.9    21.5
    2014 05 26    16 15 24.3 -02 05 25   0.2192  1.2224   161.0    15.6    21.4
    2014 05 27    16 16 00.4 -02 34 29   0.2148  1.2186   161.4    15.4    21.3
    ...
    2014 06 02    16 20 15.1 -06 10 18   0.1903  1.1977   163.4    14.0    21.0
    ...
    2014 06 10    16 28 42.0 -13 04 42   0.1636  1.1745   165.8    12.2    20.6
    ...
    2014 06 25    17 01 32.8 -32 27 54   0.1367  1.1471   161.7    16.2    20.3
    
    A. U. Tomatic                (C) Copyright 2014 MPC           M.P.E.C. 2014-K49
    

    Read MPEC 2014-K48 Read MPEC 2014-K50


    MPEC number:

    Enter an MPEC number in one of the following forms:

    • 1997-B01 (the full form)
    • J97B01 (the packed version of the full form)
    • B01 (the abbreviated form)